| time (UTC) | temp F | wind direction | speed MPH | gust MPH | rain 1hr in | rain 24hr in | rain mn in | humidity % | barometer mb |
| 20260508082543 | 59 | 169 | 0.0 | 6.0 | 0.00 | 0.00 | 0.00 | 59 | 1009.1 |
| 20260508082041 | 59 | 190 | 1.0 | 4.0 | 0.00 | 0.00 | 0.00 | 59 | 1009.3 |
| 20260508081558 | 60 | 221 | 1.0 | 7.0 | 0.00 | 0.00 | 0.00 | 58 | 1009.2 |
| 20260508081042 | 60 | 0 | 1.0 | 9.0 | 0.00 | 0.00 | 0.00 | 57 | 1009.3 |
| 20260508080541 | 60 | 156 | 2.0 | 9.0 | 0.00 | 0.00 | 0.00 | 57 | 1009.3 |
| 20260508080051 | 60 | 224 | 2.0 | 9.0 | 0.00 | 0.00 | 0.00 | 57 | 1009.4 |
| 20260508075541 | 60 | 119 | 3.0 | 9.0 | 0.00 | 0.00 | 0.00 | 57 | 1009.4 |
| 20260508075044 | 60 | 166 | 2.0 | 7.0 | 0.00 | 0.00 | 0.00 | 57 | 1009.4 |
| 20260508074550 | 60 | 209 | 2.0 | 7.0 | 0.00 | 0.00 | 0.00 | 57 | 1009.5 |
| 20260508074044 | 60 | 177 | 2.0 | 9.0 | 0.00 | 0.00 | 0.00 | 57 | 1009.6 |
| 20260508073541 | 60 | 192 | 3.0 | 9.0 | 0.00 | 0.00 | 0.00 | 57 | 1009.7 |
| 20260508073102 | 60 | 220 | 4.0 | 9.0 | 0.00 | 0.00 | 0.00 | 57 | 1009.8 |
| 20260508072543 | 60 | 206 | 2.0 | 5.0 | 0.00 | 0.00 | 0.00 | 57 | 1009.9 |
| 20260508072040 | 61 | 182 | 2.0 | 6.0 | 0.00 | 0.00 | 0.00 | 57 | 1010.0 |
| 20260508071547 | 61 | 0 | 1.0 | 7.0 | 0.00 | 0.00 | 0.00 | 56 | 1010.1 |
| 20260508071041 | 61 | 171 | 2.0 | 7.0 | 0.00 | 0.00 | 0.00 | 56 | 1010.1 |
| 20260508070544 | 61 | 182 | 2.0 | 8.0 | 0.00 | 0.00 | 0.00 | 55 | 1010.2 |
| 20260508070054 | 61 | 0 | 3.0 | 8.0 | 0.00 | 0.00 | 0.00 | 54 | 1010.2 |
| 20260508065540 | 62 | 216 | 2.0 | 9.0 | 0.00 | 0.00 | 0.00 | 54 | 1010.3 |
| 20260508065041 | 62 | 236 | 3.0 | 9.0 | 0.00 | 0.00 | 0.00 | 54 | 1010.3 |
| 20260508064550 | 62 | 171 | 2.0 | 8.0 | 0.00 | 0.00 | 0.00 | 53 | 1010.3 |
| 20260508064041 | 62 | 0 | 2.0 | 9.0 | 0.00 | 0.00 | 0.00 | 52 | 1010.4 |
| 20260508063541 | 62 | 171 | 2.0 | 10.0 | 0.00 | 0.00 | 0.00 | 52 | 1010.6 |
| 20260508063054 | 62 | 159 | 4.0 | 11.0 | 0.00 | 0.00 | 0.00 | 52 | 1010.6 |
| 20260508062540 | 62 | 156 | 4.0 | 11.0 | 0.00 | 0.00 | 0.00 | 53 | 1010.7 |
| 20260508062041 | 62 | 157 | 3.0 | 10.0 | 0.00 | 0.00 | 0.00 | 53 | 1010.7 |
| 20260508061551 | 62 | 216 | 4.0 | 9.0 | 0.00 | 0.00 | 0.00 | 54 | 1010.9 |
| 20260508061042 | 62 | 175 | 2.0 | 8.0 | 0.00 | 0.00 | 0.00 | 54 | 1010.8 |
| 20260508060541 | 62 | 201 | 2.0 | 9.0 | 0.00 | 0.00 | 0.00 | 54 | 1011.3 |
| 20260508060056 | 62 | 186 | 3.0 | 9.0 | 0.00 | 0.00 | 0.00 | 54 | 1011.3 |
| 20260508055545 | 62 | 203 | 2.0 | 9.0 | 0.00 | 0.00 | 0.00 | 54 | 1011.4 |
| 20260508055041 | 62 | 242 | 2.0 | 7.0 | 0.00 | 0.00 | 0.00 | 54 | 1011.3 |
| 20260508054635 | 62 | 209 | 3.0 | 8.0 | 0.00 | 0.00 | 0.00 | 55 | 1011.4 |
| 20260508054042 | 62 | 251 | 3.0 | 10.0 | 0.00 | 0.00 | 0.00 | 55 | 1011.3 |
| 20260508053543 | 62 | 236 | 3.0 | 12.0 | 0.00 | 0.00 | 0.00 | 56 | 1011.3 |
| 20260508053048 | 62 | 183 | 4.0 | 12.0 | 0.00 | 0.00 | 0.00 | 56 | 1011.0 |
| 20260508052546 | 62 | 189 | 4.0 | 12.0 | 0.00 | 0.00 | 0.00 | 56 | 1011.0 |
| 20260508052040 | 61 | 139 | 4.0 | 11.0 | 0.00 | 0.00 | 0.00 | 56 | 1010.8 |
| 20260508051550 | 61 | 208 | 4.0 | 11.0 | 0.00 | 0.00 | 0.00 | 57 | 1010.8 |
| 20260508051041 | 61 | 190 | 3.0 | 10.0 | 0.00 | 0.00 | 0.00 | 57 | 1010.8 |
| 20260508050544 | 61 | 223 | 4.0 | 9.0 | 0.00 | 0.00 | 0.00 | 58 | 1010.8 |
| 20260508050054 | 60 | 194 | 1.0 | 8.0 | 0.00 | 0.00 | 0.00 | 59 | 1010.8 |
| 20260508045543 | 60 | 215 | 1.0 | 9.0 | 0.00 | 0.00 | 0.00 | 59 | 1010.8 |
| 20260508045043 | 60 | 165 | 3.0 | 9.0 | 0.00 | 0.00 | 0.00 | 59 | 1010.9 |
| 20260508044557 | 60 | 159 | 1.0 | 5.0 | 0.00 | 0.00 | 0.00 | 59 | 1011.0 |
| 20260508044043 | 61 | 0 | 1.0 | 5.0 | 0.00 | 0.00 | 0.00 | 59 | 1010.9 |
| 20260508043543 | 61 | 175 | 1.0 | 5.0 | 0.00 | 0.00 | 0.00 | 59 | 1011.0 |
| 20260508043049 | 61 | 172 | 2.0 | 9.0 | 0.00 | 0.00 | 0.00 | 58 | 1011.1 |
| 20260508042543 | 61 | 155 | 2.0 | 9.0 | 0.00 | 0.00 | 0.00 | 58 | 1011.0 |
| 20260508042045 | 61 | 190 | 2.0 | 9.0 | 0.00 | 0.00 | 0.00 | 58 | 1010.8 |
| 20260508041557 | 61 | 232 | 1.0 | 9.0 | 0.00 | 0.00 | 0.00 | 58 | 1010.8 |
| 20260508041040 | 61 | 0 | 2.0 | 10.0 | 0.00 | 0.00 | 0.00 | 57 | 1010.9 |
| 20260508040543 | 61 | 0 | 2.0 | 10.0 | 0.00 | 0.00 | 0.00 | 57 | 1010.9 |
| 20260508040057 | 62 | 187 | 2.0 | 8.0 | 0.00 | 0.00 | 0.00 | 57 | 1010.9 |
| 20260508035543 | 62 | 202 | 2.0 | 8.0 | 0.00 | 0.00 | 0.00 | 57 | 1010.8 |
| 20260508035041 | 62 | 165 | 2.0 | 7.0 | 0.00 | 0.00 | 0.00 | 56 | 1011.0 |
| 20260508034553 | 62 | 202 | 3.0 | 7.0 | 0.00 | 0.00 | 0.00 | 56 | 1010.9 |
| 20260508034041 | 62 | 219 | 2.0 | 6.0 | 0.00 | 0.00 | 0.00 | 55 | 1010.8 |
| 20260508033543 | 63 | 206 | 2.0 | 8.0 | 0.00 | 0.00 | 0.00 | 54 | 1010.9 |
| 20260508033048 | 62 | 168 | 2.0 | 9.0 | 0.00 | 0.00 | 0.00 | 55 | 1010.8 |
| 20260508032548 | 62 | 213 | 3.0 | 9.0 | 0.00 | 0.00 | 0.00 | 56 | 1010.6 |
| 20260508032044 | 62 | 0 | 2.0 | 10.0 | 0.00 | 0.00 | 0.00 | 56 | 1010.7 |
| 20260508031558 | 62 | 182 | 2.0 | 10.0 | 0.00 | 0.00 | 0.00 | 56 | 1010.8 |
| 20260508031040 | 62 | 165 | 1.0 | 7.0 | 0.00 | 0.00 | 0.00 | 56 | 1010.7 |
| 20260508030543 | 62 | 184 | 3.0 | 7.0 | 0.00 | 0.00 | 0.00 | 56 | 1010.7 |
| 20260508030110 | 63 | 209 | 1.0 | 7.0 | 0.00 | 0.00 | 0.00 | 56 | 1010.5 |
| 20260508025544 | 63 | 223 | 1.0 | 7.0 | 0.00 | 0.00 | 0.00 | 55 | 1010.5 |
| 20260508025044 | 63 | 213 | 2.0 | 7.0 | 0.00 | 0.00 | 0.00 | 54 | 1010.3 |
| 20260508024550 | 63 | 0 | 1.0 | 7.0 | 0.00 | 0.00 | 0.00 | 54 | 1010.3 |
| 20260508024041 | 63 | 210 | 0.0 | 7.0 | 0.00 | 0.00 | 0.00 | 53 | 1010.3 |
| 20260508023543 | 64 | 186 | 2.0 | 7.0 | 0.00 | 0.00 | 0.00 | 53 | 1010.2 |
| 20260508023051 | 64 | 219 | 1.0 | 6.0 | 0.00 | 0.00 | 0.00 | 53 | 1010.1 |
| 20260508022540 | 64 | 150 | 0.0 | 6.0 | 0.00 | 0.00 | 0.00 | 52 | 1010.2 |
| 20260508022041 | 64 | 0 | 1.0 | 5.0 | 0.00 | 0.00 | 0.00 | 51 | 1010.0 |
| 20260508021609 | 64 | 0 | 1.0 | 6.0 | 0.00 | 0.00 | 0.00 | 51 | 1010.0 |
| 20260508021040 | 65 | 204 | 1.0 | 6.0 | 0.00 | 0.00 | 0.00 | 50 | 1010.0 |
| 20260508020543 | 65 | 187 | 1.0 | 4.0 | 0.00 | 0.00 | 0.00 | 50 | 1009.9 |
| 20260508020054 | 65 | 0 | 1.0 | 4.0 | 0.00 | 0.00 | 0.00 | 49 | 1009.8 |
| 20260508015543 | 65 | 0 | 0.0 | 4.0 | 0.00 | 0.00 | 0.00 | 49 | 1009.8 |
| 20260508015043 | 65 | 0 | 0.0 | 3.0 | 0.00 | 0.00 | 0.00 | 49 | 1009.7 |
| 20260508014552 | 66 | 0 | 0.0 | 6.0 | 0.00 | 0.00 | 0.00 | 48 | 1009.7 |
| 20260508014043 | 66 | 0 | 1.0 | 6.0 | 0.00 | 0.00 | 0.00 | 49 | 1009.6 |
| 20260508013544 | 65 | 0 | 0.0 | 4.0 | 0.00 | 0.00 | 0.00 | 49 | 1009.6 |
| 20260508013058 | 66 | 0 | 0.0 | 4.0 | 0.00 | 0.00 | 0.00 | 48 | 1009.4 |
| 20260508012543 | 66 | 186 | 0.0 | 4.0 | 0.00 | 0.00 | 0.00 | 47 | 1009.5 |
| 20260508012044 | 66 | 185 | 0.0 | 4.0 | 0.00 | 0.00 | 0.00 | 47 | 1009.5 |
| 20260508011559 | 67 | 171 | 0.0 | 3.0 | 0.00 | 0.00 | 0.00 | 46 | 1009.5 |
| 20260508011040 | 67 | 234 | 0.0 | 4.0 | 0.00 | 0.00 | 0.00 | 46 | 1009.4 |
| 20260508010540 | 67 | 0 | 0.0 | 4.0 | 0.00 | 0.00 | 0.00 | 45 | 1009.4 |
| 20260508010057 | 68 | 186 | 0.0 | 2.0 | 0.00 | 0.00 | 0.00 | 45 | 1009.4 |
| 20260508005541 | 68 | 0 | 0.0 | 3.0 | 0.00 | 0.00 | 0.00 | 44 | 1009.4 |
| 20260508005042 | 69 | 0 | 0.0 | 3.0 | 0.00 | 0.00 | 0.00 | 44 | 1009.5 |
| 20260508004558 | 69 | 182 | 0.0 | 6.0 | 0.00 | 0.00 | 0.00 | 44 | 1009.5 |
| 20260508004043 | 69 | 0 | 1.0 | 6.0 | 0.00 | 0.00 | 0.00 | 42 | 1009.4 |
| 20260508003541 | 70 | 146 | 1.0 | 8.0 | 0.00 | 0.00 | 0.00 | 41 | 1009.3 |
| 20260508003103 | 70 | 212 | 2.0 | 8.0 | 0.00 | 0.00 | 0.00 | 40 | 1009.5 |
| 20260508002541 | 70 | 159 | 2.0 | 9.0 | 0.00 | 0.00 | 0.00 | 40 | 1009.4 |
| 20260508002045 | 70 | 227 | 2.0 | 9.0 | 0.00 | 0.00 | 0.00 | 40 | 1009.5 |
| 20260508001550 | 71 | 165 | 2.0 | 10.0 | 0.00 | 0.00 | 0.00 | 40 | 1009.5 |
| 20260508001043 | 71 | 201 | 4.0 | 10.0 | 0.00 | 0.00 | 0.00 | 39 | 1009.6 |
| 20260508000544 | 71 | 230 | 2.0 | 10.0 | 0.00 | 0.00 | 0.00 | 38 | 1009.5 |
| 20260508000052 | 71 | 226 | 3.0 | 9.0 | 0.00 | 0.00 | 0.00 | 38 | 1009.5 |
| 20260507235544 | 71 | 219 | 2.0 | 9.0 | 0.00 | 0.00 | 0.00 | 38 | 1009.7 |
| 20260507235043 | 71 | 176 | 3.0 | 9.0 | 0.00 | 0.00 | 0.00 | 37 | 1009.6 |
| 20260507234553 | 72 | 207 | 2.0 | 12.0 | 0.00 | 0.00 | 0.00 | 38 | 1009.6 |
| 20260507234043 | 72 | 210 | 4.0 | 12.0 | 0.00 | 0.00 | 0.00 | 36 | 1009.7 |
| 20260507233543 | 72 | 234 | 2.0 | 10.0 | 0.00 | 0.00 | 0.00 | 37 | 1009.6 |
| 20260507233056 | 73 | 162 | 1.0 | 10.0 | 0.00 | 0.00 | 0.00 | 37 | 1009.8 |
| 20260507232545 | 73 | 155 | 3.0 | 7.0 | 0.00 | 0.00 | 0.00 | 36 | 1009.7 |
| 20260507232042 | 72 | 217 | 3.0 | 8.0 | 0.00 | 0.00 | 0.00 | 37 | 1009.8 |
| 20260507231557 | 72 | 197 | 2.0 | 9.0 | 0.00 | 0.00 | 0.00 | 38 | 1009.8 |
| 20260507231041 | 72 | 202 | 1.0 | 10.0 | 0.00 | 0.00 | 0.00 | 38 | 1009.9 |
| 20260507230541 | 73 | 201 | 4.0 | 10.0 | 0.00 | 0.00 | 0.00 | 36 | 1009.9 |
| 20260507230049 | 73 | 180 | 2.0 | 11.0 | 0.00 | 0.00 | 0.00 | 36 | 1010.1 |
| 20260507225544 | 73 | 168 | 5.0 | 11.0 | 0.00 | 0.00 | 0.00 | 35 | 1010.1 |
| 20260507225041 | 73 | 190 | 3.0 | 11.0 | 0.00 | 0.00 | 0.00 | 35 | 1010.1 |
| 20260507224601 | 74 | 210 | 4.0 | 11.0 | 0.00 | 0.00 | 0.00 | 35 | 1010.2 |
| 20260507224043 | 74 | 0 | 2.0 | 12.0 | 0.00 | 0.00 | 0.00 | 36 | 1010.4 |
| 20260507223544 | 73 | 192 | 4.0 | 12.0 | 0.00 | 0.00 | 0.00 | 36 | 1010.4 |
| 20260507223052 | 73 | 197 | 4.0 | 12.0 | 0.00 | 0.00 | 0.00 | 37 | 1010.5 |
| 20260507222545 | 73 | 225 | 3.0 | 10.0 | 0.00 | 0.00 | 0.00 | 37 | 1010.6 |
| 20260507222043 | 72 | 165 | 4.0 | 10.0 | 0.00 | 0.00 | 0.00 | 36 | 1010.5 |
| 20260507221553 | 72 | 255 | 2.0 | 8.0 | 0.00 | 0.00 | 0.00 | 38 | 1010.6 |
| 20260507221040 | 72 | 267 | 1.0 | 10.0 | 0.00 | 0.00 | 0.00 | 37 | 1010.7 |
| 20260507220541 | 72 | 352 | 4.0 | 14.0 | 0.00 | 0.00 | 0.00 | 36 | 1010.9 |
| 20260507220057 | 72 | 163 | 5.0 | 14.0 | 0.00 | 0.00 | 0.00 | 36 | 1010.8 |
| 20260507215541 | 73 | 217 | 2.0 | 14.0 | 0.00 | 0.00 | 0.00 | 38 | 1010.9 |
| 20260507215041 | 72 | 210 | 6.0 | 14.0 | 0.00 | 0.00 | 0.00 | 37 | 1010.8 |
| 20260507214553 | 72 | 215 | 6.0 | 12.0 | 0.00 | 0.00 | 0.00 | 37 | 1010.9 |
| 20260507214040 | 72 | 212 | 4.0 | 14.0 | 0.00 | 0.00 | 0.00 | 38 | 1011.0 |
| 20260507213544 | 72 | 181 | 2.0 | 14.0 | 0.00 | 0.00 | 0.00 | 38 | 1010.9 |
| 20260507213052 | 72 | 236 | 4.0 | 14.0 | 0.00 | 0.00 | 0.00 | 36 | 1011.0 |
| 20260507212541 | 72 | 215 | 5.0 | 14.0 | 0.00 | 0.00 | 0.00 | 36 | 1010.9 |
| 20260507212041 | 72 | 182 | 6.0 | 13.0 | 0.00 | 0.00 | 0.00 | 36 | 1011.0 |
| 20260507211554 | 72 | 150 | 4.0 | 14.0 | 0.00 | 0.00 | 0.00 | 38 | 1011.1 |
| 20260507211042 | 72 | 196 | 5.0 | 15.0 | 0.00 | 0.00 | 0.00 | 38 | 1011.2 |
| 20260507210541 | 72 | 249 | 5.0 | 15.0 | 0.00 | 0.00 | 0.00 | 38 | 1011.2 |
| 20260507210113 | 72 | 287 | 4.0 | 12.0 | 0.00 | 0.00 | 0.00 | 37 | 1011.3 |
| 20260507205541 | 73 | 184 | 3.0 | 22.0 | 0.00 | 0.00 | 0.00 | 38 | 1011.4 |
| 20260507205044 | 72 | 25 | 6.0 | 22.0 | 0.00 | 0.00 | 0.00 | 38 | 1011.5 |
| 20260507204557 | 72 | 182 | 6.0 | 15.0 | 0.00 | 0.00 | 0.00 | 38 | 1011.6 |
| 20260507204043 | 73 | 190 | 3.0 | 15.0 | 0.00 | 0.00 | 0.00 | 41 | 1011.8 |
| 20260507203541 | 72 | 175 | 7.0 | 15.0 | 0.00 | 0.00 | 0.00 | 38 | 1011.7 |
| 20260507203058 | 73 | 221 | 4.0 | 15.0 | 0.00 | 0.00 | 0.00 | 40 | 1011.8 |
| 20260507202543 | 72 | 206 | 3.0 | 10.0 | 0.00 | 0.00 | 0.00 | 39 | 1011.9 |
| 20260507202040 | 72 | 233 | 3.0 | 12.0 | 0.00 | 0.00 | 0.00 | 39 | 1012.1 |
| 20260507201603 | 71 | 267 | 5.0 | 16.0 | 0.00 | 0.00 | 0.00 | 39 | 1012.2 |
| 20260507201043 | 71 | 168 | 5.0 | 16.0 | 0.00 | 0.00 | 0.00 | 40 | 1012.4 |
| 20260507200543 | 72 | 151 | 6.0 | 21.0 | 0.00 | 0.00 | 0.00 | 41 | 1012.4 |
| 20260507195544 | 71 | 194 | 5.0 | 17.0 | 0.00 | 0.00 | 0.00 | 40 | 1012.6 |
| 20260507195041 | 71 | 191 | 7.0 | 17.0 | 0.00 | 0.00 | 0.00 | 40 | 1012.5 |
| 20260507194554 | 72 | 155 | 4.0 | 12.0 | 0.00 | 0.00 | 0.00 | 39 | 1012.7 |
| 20260507194040 | 71 | 261 | 5.0 | 15.0 | 0.00 | 0.00 | 0.00 | 40 | 1012.8 |
| 20260507193540 | 71 | 196 | 5.0 | 15.0 | 0.00 | 0.00 | 0.00 | 41 | 1012.8 |
| 20260507193110 | 70 | 231 | 6.0 | 15.0 | 0.00 | 0.00 | 0.00 | 42 | 1012.9 |
| 20260507192540 | 71 | 195 | 6.0 | 15.0 | 0.00 | 0.00 | 0.00 | 41 | 1013.1 |
| 20260507192042 | 70 | 205 | 3.0 | 13.0 | 0.00 | 0.00 | 0.00 | 41 | 1013.1 |
| 20260507191558 | 70 | 243 | 5.0 | 14.0 | 0.00 | 0.00 | 0.00 | 43 | 1013.2 |
| 20260507191043 | 69 | 244 | 5.0 | 19.0 | 0.00 | 0.00 | 0.00 | 42 | 1013.2 |
| 20260507190542 | 69 | 214 | 5.0 | 19.0 | 0.00 | 0.00 | 0.00 | 42 | 1013.2 |
| 20260507190052 | 69 | 240 | 5.0 | 17.0 | 0.00 | 0.00 | 0.00 | 44 | 1013.4 |
| 20260507185541 | 69 | 246 | 5.0 | 17.0 | 0.00 | 0.00 | 0.00 | 45 | 1013.5 |
| 20260507185041 | 68 | 211 | 7.0 | 18.0 | 0.00 | 0.00 | 0.00 | 44 | 1013.4 |
| 20260507184554 | 69 | 221 | 6.0 | 18.0 | 0.00 | 0.00 | 0.00 | 43 | 1013.5 |
| 20260507184041 | 69 | 239 | 4.0 | 18.0 | 0.00 | 0.00 | 0.00 | 44 | 1013.6 |
| 20260507183540 | 69 | 244 | 5.0 | 18.0 | 0.00 | 0.00 | 0.00 | 46 | 1013.7 |
| 20260507183101 | 69 | 180 | 5.0 | 18.0 | 0.00 | 0.00 | 0.00 | 45 | 1013.7 |
| 20260507182541 | 69 | 256 | 5.0 | 18.0 | 0.00 | 0.00 | 0.00 | 45 | 1013.7 |
| 20260507182041 | 68 | 244 | 6.0 | 18.0 | 0.00 | 0.00 | 0.00 | 45 | 1013.9 |
| 20260507181549 | 68 | 190 | 4.0 | 16.0 | 0.00 | 0.00 | 0.00 | 48 | 1013.8 |
| 20260507181040 | 68 | 285 | 5.0 | 13.0 | 0.00 | 0.00 | 0.00 | 47 | 1014.0 |
| 20260507180541 | 67 | 142 | 4.0 | 16.0 | 0.00 | 0.00 | 0.00 | 46 | 1014.0 |
| 20260507180055 | 67 | 238 | 4.0 | 16.0 | 0.00 | 0.00 | 0.00 | 45 | 1014.0 |
| 20260507175543 | 67 | 198 | 7.0 | 16.0 | 0.00 | 0.00 | 0.00 | 45 | 1014.2 |
| 20260507175041 | 67 | 252 | 4.0 | 17.0 | 0.00 | 0.00 | 0.00 | 47 | 1014.2 |
| 20260507174559 | 66 | 194 | 6.0 | 17.0 | 0.00 | 0.00 | 0.00 | 48 | 1014.5 |
| 20260507174040 | 66 | 230 | 6.0 | 17.0 | 0.00 | 0.00 | 0.00 | 48 | 1014.5 |
| 20260507173541 | 66 | 190 | 6.0 | 17.0 | 0.00 | 0.00 | 0.00 | 48 | 1014.5 |
| 20260507173125 | 66 | 234 | 3.0 | 13.0 | 0.00 | 0.00 | 0.00 | 51 | 1014.6 |
| 20260507172541 | 66 | 178 | 6.0 | 13.0 | 0.00 | 0.00 | 0.00 | 48 | 1014.7 |
| 20260507172040 | 65 | 254 | 5.0 | 15.0 | 0.00 | 0.00 | 0.00 | 49 | 1014.8 |
| 20260507171553 | 66 | 194 | 5.0 | 15.0 | 0.00 | 0.00 | 0.00 | 49 | 1015.0 |
| 20260507171041 | 66 | 200 | 3.0 | 11.0 | 0.00 | 0.00 | 0.00 | 50 | 1015.2 |
| 20260507170541 | 65 | 267 | 5.0 | 13.0 | 0.00 | 0.00 | 0.00 | 50 | 1015.3 |
| 20260507170055 | 66 | 194 | 4.0 | 14.0 | 0.00 | 0.00 | 0.00 | 50 | 1015.3 |
| 20260507165540 | 65 | 348 | 4.0 | 16.0 | 0.00 | 0.00 | 0.00 | 49 | 1015.4 |
| 20260507165042 | 64 | 243 | 7.0 | 16.0 | 0.00 | 0.00 | 0.00 | 51 | 1015.3 |
| 20260507164600 | 64 | 286 | 5.0 | 16.0 | 0.00 | 0.00 | 0.00 | 51 | 1015.5 |
| 20260507164042 | 64 | 355 | 6.0 | 16.0 | 0.00 | 0.00 | 0.00 | 50 | 1015.6 |
| 20260507163542 | 64 | 174 | 6.0 | 15.0 | 0.00 | 0.00 | 0.00 | 50 | 1015.5 |
| 20260507163054 | 65 | 202 | 4.0 | 14.0 | 0.00 | 0.00 | 0.00 | 49 | 1015.7 |
| 20260507162541 | 64 | 223 | 5.0 | 13.0 | 0.00 | 0.00 | 0.00 | 51 | 1015.7 |
| 20260507162041 | 64 | 241 | 5.0 | 13.0 | 0.00 | 0.00 | 0.00 | 50 | 1015.7 |
| 20260507161608 | 64 | 217 | 3.0 | 16.0 | 0.00 | 0.00 | 0.00 | 53 | 1015.8 |
| 20260507161041 | 63 | 227 | 7.0 | 16.0 | 0.00 | 0.00 | 0.00 | 52 | 1015.9 |
| 20260507160542 | 63 | 271 | 6.0 | 16.0 | 0.00 | 0.00 | 0.00 | 52 | 1015.9 |
| 20260507160116 | 63 | 240 | 4.0 | 16.0 | 0.00 | 0.00 | 0.00 | 53 | 1015.9 |
| 20260507155540 | 62 | 181 | 6.0 | 12.0 | 0.00 | 0.00 | 0.00 | 53 | 1016.0 |
| 20260507155043 | 62 | 196 | 4.0 | 12.0 | 0.00 | 0.00 | 0.00 | 53 | 1016.0 |
| 20260507154600 | 62 | 252 | 3.0 | 11.0 | 0.00 | 0.00 | 0.00 | 54 | 1016.1 |
| 20260507154042 | 62 | 188 | 4.0 | 12.0 | 0.00 | 0.00 | 0.00 | 54 | 1016.0 |
| 20260507153541 | 62 | 321 | 3.0 | 19.0 | 0.00 | 0.00 | 0.00 | 57 | 1016.0 |
| 20260507153101 | 61 | 217 | 7.0 | 19.0 | 0.00 | 0.00 | 0.00 | 53 | 1016.0 |
| 20260507152540 | 62 | 248 | 3.0 | 13.0 | 0.00 | 0.00 | 0.00 | 55 | 1016.1 |
| 20260507152041 | 61 | 166 | 3.0 | 13.0 | 0.00 | 0.00 | 0.00 | 56 | 1016.1 |
| 20260507151556 | 61 | 159 | 3.0 | 12.0 | 0.00 | 0.00 | 0.00 | 56 | 1016.2 |
| 20260507151042 | 60 | 170 | 5.0 | 14.0 | 0.00 | 0.00 | 0.00 | 56 | 1016.3 |
| 20260507150545 | 60 | 296 | 4.0 | 14.0 | 0.00 | 0.00 | 0.00 | 56 | 1016.5 |
| 20260507150054 | 59 | 159 | 5.0 | 13.0 | 0.00 | 0.00 | 0.00 | 56 | 1016.6 |
| 20260507145541 | 59 | 178 | 4.0 | 14.0 | 0.00 | 0.00 | 0.00 | 58 | 1016.6 |
| 20260507145044 | 59 | 296 | 4.0 | 14.0 | 0.00 | 0.00 | 0.00 | 57 | 1016.7 |
| 20260507144606 | 59 | 325 | 4.0 | 14.0 | 0.00 | 0.00 | 0.00 | 58 | 1016.8 |
| 20260507144041 | 59 | 194 | 5.0 | 14.0 | 0.00 | 0.00 | 0.00 | 60 | 1016.8 |
| 20260507143540 | 58 | 192 | 4.0 | 12.0 | 0.00 | 0.00 | 0.00 | 59 | 1016.8 |
| 20260507143106 | 57 | 225 | 3.0 | 12.0 | 0.00 | 0.00 | 0.00 | 60 | 1016.8 |
| 20260507142541 | 57 | 218 | 5.0 | 17.0 | 0.00 | 0.00 | 0.00 | 62 | 1016.8 |
| 20260507142044 | 57 | 248 | 5.0 | 17.0 | 0.00 | 0.00 | 0.00 | 63 | 1016.9 |
| 20260507141610 | 56 | 134 | 4.0 | 14.0 | 0.00 | 0.00 | 0.00 | 64 | 1016.9 |
| 20260507141045 | 56 | 226 | 3.0 | 12.0 | 0.00 | 0.00 | 0.00 | 64 | 1016.8 |
| 20260507140543 | 55 | 228 | 3.0 | 9.0 | 0.00 | 0.00 | 0.00 | 64 | 1016.7 |
| 20260507140101 | 55 | 216 | 2.0 | 10.0 | 0.00 | 0.00 | 0.00 | 66 | 1016.8 |
| 20260507135548 | 55 | 173 | 3.0 | 10.0 | 0.00 | 0.00 | 0.00 | 65 | 1016.9 |
| 20260507135044 | 54 | 324 | 3.0 | 11.0 | 0.00 | 0.00 | 0.00 | 67 | 1016.8 |
| 20260507134607 | 54 | 268 | 2.0 | 11.0 | 0.00 | 0.00 | 0.00 | 67 | 1016.7 |
| 20260507134044 | 54 | 280 | 3.0 | 9.0 | 0.00 | 0.00 | 0.00 | 67 | 1016.7 |
| 20260507133546 | 53 | 257 | 1.0 | 9.0 | 0.00 | 0.00 | 0.00 | 69 | 1016.7 |
| 20260507133108 | 53 | 307 | 2.0 | 7.0 | 0.00 | 0.00 | 0.00 | 71 | 1016.8 |
| 20260507132543 | 52 | 187 | 2.0 | 7.0 | 0.00 | 0.00 | 0.00 | 72 | 1016.9 |
| 20260507132043 | 51 | 227 | 2.0 | 7.0 | 0.00 | 0.00 | 0.00 | 74 | 1016.9 |
| 20260507131600 | 51 | 202 | 1.0 | 8.0 | 0.00 | 0.00 | 0.00 | 75 | 1016.9 |
| 20260507131044 | 50 | 248 | 3.0 | 8.0 | 0.00 | 0.00 | 0.00 | 76 | 1017.0 |
| 20260507130543 | 49 | 0 | 1.0 | 8.0 | 0.00 | 0.00 | 0.00 | 76 | 1016.9 |
| 20260507130107 | 49 | 228 | 2.0 | 9.0 | 0.00 | 0.00 | 0.00 | 77 | 1016.9 |
| 20260507125544 | 49 | 244 | 2.0 | 9.0 | 0.00 | 0.00 | 0.00 | 77 | 1016.9 |
| 20260507125045 | 48 | 199 | 2.0 | 6.0 | 0.00 | 0.00 | 0.00 | 78 | 1016.8 |
| 20260507124554 | 48 | 0 | 1.0 | 5.0 | 0.00 | 0.00 | 0.00 | 78 | 1016.8 |
| 20260507124044 | 47 | 219 | 2.0 | 5.0 | 0.00 | 0.00 | 0.00 | 79 | 1016.8 |
| 20260507123544 | 47 | 183 | 0.0 | 5.0 | 0.00 | 0.00 | 0.00 | 79 | 1016.9 |
| 20260507123057 | 47 | 0 | 1.0 | 5.0 | 0.00 | 0.00 | 0.00 | 80 | 1016.8 |
| 20260507122545 | 46 | 200 | 1.0 | 4.0 | 0.00 | 0.00 | 0.00 | 80 | 1016.9 |
| 20260507122047 | 46 | 236 | 1.0 | 4.0 | 0.00 | 0.00 | 0.00 | 81 | 1016.9 |
| 20260507121601 | 46 | 0 | 0.0 | 4.0 | 0.00 | 0.00 | 0.00 | 81 | 1016.9 |
| 20260507121044 | 45 | 0 | 0.0 | 4.0 | 0.00 | 0.00 | 0.00 | 82 | 1016.9 |
| 20260507120544 | 45 | 163 | 0.0 | 3.0 | 0.00 | 0.00 | 0.00 | 82 | 1017.0 |
| 20260507120053 | 45 | 183 | 0.0 | 3.0 | 0.00 | 0.00 | 0.00 | 82 | 1017.1 |
| 20260507115545 | 45 | 202 | 0.0 | 3.0 | 0.00 | 0.01 | 0.00 | 82 | 1017.0 |
| 20260507115045 | 44 | 192 | 0.0 | 3.0 | 0.00 | 0.01 | 0.00 | 83 | 1017.0 |
| 20260507114605 | 44 | 223 | 0.0 | 3.0 | 0.00 | 0.01 | 0.00 | 83 | 1016.9 |
| 20260507114047 | 44 | 0 | 0.0 | 3.0 | 0.00 | 0.01 | 0.00 | 83 | 1017.0 |
| 20260507113546 | 44 | 198 | 0.0 | 2.0 | 0.00 | 0.01 | 0.00 | 82 | 1017.0 |
| 20260507113055 | 44 | 0 | 0.0 | 4.0 | 0.00 | 0.01 | 0.00 | 82 | 1016.9 |
| 20260507112545 | 44 | 0 | 0.0 | 4.0 | 0.00 | 0.01 | 0.00 | 82 | 1016.9 |
| 20260507112045 | 45 | 0 | 1.0 | 4.0 | 0.00 | 0.01 | 0.00 | 81 | 1017.0 |
| 20260507111601 | 45 | 0 | 0.0 | 2.0 | 0.00 | 0.01 | 0.00 | 81 | 1016.9 |
| 20260507111045 | 45 | 0 | 0.0 | 2.0 | 0.00 | 0.01 | 0.00 | 80 | 1016.9 |
| 20260507110545 | 45 | 229 | 0.0 | 4.0 | 0.00 | 0.01 | 0.00 | 80 | 1017.0 |
| 20260507110052 | 45 | 0 | 0.0 | 4.0 | 0.00 | 0.01 | 0.00 | 80 | 1016.9 |
| 20260507105545 | 45 | 0 | 1.0 | 4.0 | 0.00 | 0.01 | 0.00 | 79 | 1016.8 |
| 20260507105043 | 45 | 0 | 0.0 | 2.0 | 0.00 | 0.01 | 0.00 | 79 | 1016.9 |
| 20260507104551 | 46 | 0 | 0.0 | 4.0 | 0.00 | 0.01 | 0.00 | 79 | 1016.9 |
| 20260507104044 | 46 | 0 | 0.0 | 4.0 | 0.00 | 0.01 | 0.00 | 78 | 1016.9 |
| 20260507103544 | 46 | 0 | 0.0 | 4.0 | 0.00 | 0.01 | 0.00 | 78 | 1016.8 |
| 20260507103049 | 46 | 178 | 0.0 | 4.0 | 0.00 | 0.01 | 0.00 | 78 | 1017.0 |
| 20260507102544 | 46 | 190 | 0.0 | 4.0 | 0.00 | 0.01 | 0.00 | 78 | 1016.9 |
| 20260507102044 | 46 | 206 | 0.0 | 4.0 | 0.00 | 0.01 | 0.00 | 78 | 1016.9 |
| 20260507101611 | 46 | 223 | 1.0 | 4.0 | 0.00 | 0.01 | 0.00 | 78 | 1017.0 |
| 20260507101045 | 46 | 0 | 1.0 | 4.0 | 0.00 | 0.01 | 0.00 | 77 | 1017.0 |
| 20260507100545 | 46 | 198 | 0.0 | 4.0 | 0.00 | 0.01 | 0.00 | 77 | 1017.1 |
| 20260507100051 | 46 | 223 | 0.0 | 3.0 | 0.00 | 0.01 | 0.00 | 77 | 1017.0 |
| 20260507095544 | 46 | 0 | 0.0 | 3.0 | 0.00 | 0.01 | 0.00 | 77 | 1017.1 |
| 20260507095044 | 46 | 217 | 0.0 | 2.0 | 0.00 | 0.01 | 0.00 | 77 | 1017.0 |
| 20260507094553 | 46 | 0 | 0.0 | 3.0 | 0.00 | 0.01 | 0.00 | 76 | 1017.1 |
| 20260507094043 | 47 | 0 | 0.0 | 3.0 | 0.00 | 0.01 | 0.00 | 76 | 1017.0 |
| 20260507093543 | 47 | 227 | 0.0 | 2.0 | 0.00 | 0.01 | 0.00 | 76 | 1017.2 |
| 20260507093057 | 47 | 0 | 0.0 | 2.0 | 0.00 | 0.01 | 0.00 | 75 | 1017.1 |
| 20260507092545 | 47 | 0 | 0.0 | 3.0 | 0.00 | 0.01 | 0.00 | 75 | 1017.1 |
| 20260507092044 | 47 | 0 | 0.0 | 3.0 | 0.00 | 0.01 | 0.00 | 74 | 1017.2 |
| 20260507091551 | 48 | 195 | 0.0 | 2.0 | 0.00 | 0.01 | 0.00 | 73 | 1017.1 |
| 20260507091044 | 48 | 215 | 0.0 | 2.0 | 0.00 | 0.01 | 0.00 | 73 | 1017.3 |
| 20260507090544 | 47 | 0 | 0.0 | 2.0 | 0.00 | 0.01 | 0.00 | 73 | 1017.3 |
| 20260507090110 | 48 | 0 | 0.0 | 2.0 | 0.00 | 0.01 | 0.00 | 72 | 1017.4 |
| 20260507085545 | 48 | 0 | 0.0 | 2.0 | 0.00 | 0.01 | 0.00 | 72 | 1017.4 |
| 20260507085044 | 48 | 0 | 0.0 | 3.0 | 0.00 | 0.01 | 0.00 | 71 | 1017.4 |
| 20260507084552 | 49 | 0 | 0.0 | 3.0 | 0.00 | 0.01 | 0.00 | 71 | 1017.3 |
| 20260507084045 | 49 | 228 | 0.0 | 4.0 | 0.00 | 0.01 | 0.00 | 70 | 1017.4 |
| 20260507083545 | 49 | 234 | 0.0 | 4.0 | 0.00 | 0.01 | 0.00 | 70 | 1017.4 |
| 20260507083052 | 49 | 252 | 0.0 | 4.0 | 0.00 | 0.01 | 0.00 | 70 | 1017.5 |